College Park, MD

8:23 AM EDT on May 26, 2017 (GMT -0400)
College Park

Weather History for KCGS - July, 2013

Change the Weather History Date:

Wednesday, July 3, 2013

  Actual Average Record
Temperature  
Mean Temperature 81 °F -  
Max Temperature 89 °F 87 °F 102 °F (1966)
Min Temperature 73 °F 66 °F 48 °F (1952)
Cooling Degree Days 16    
Growing Degree Days 31 (Base 50)    
Moisture  
Dew Point 75 °F    
Average Humidity 85    
Maximum Humidity 100    
Minimum Humidity 65    
Precipitation  
Precipitation 0.00 in - - ()
Sea Level Pressure  
Sea Level Pressure 30.21 in    
Wind  
Wind Speed 3 mph (South)    
Max Wind Speed 9 mph    
Max Gust Speed -    
Visibility 10 miles    
Events      
Averages and records for this station are not official NWS values.
T = Trace of Precipitation, MM = Missing Value Source: NWS Daily Summary

Daily Weather History Graph

Daily Weather History Graph

Search for Another Location

Airport or City:

Trip Planner

Search our weather history database for the weather conditions in past years. The results will help you decide how hot, cold, wet, or windy it might be!

Date:

Astronomy

Jul. 03, 2013 Rise Set
Actual Time 5:46 AM EDT 8:36 PM EDT
Civil Twilight 5:15 AM EDT 9:08 PM EDT
Nautical Twilight 4:34 AM EDT 9:48 PM EDT
Astronomical Twilight 3:49 AM EDT 10:34 PM EDT
Moon 2:22 AM EDT (7/3) 4:46 PM EDT (7/3)
Length of Visible Light 15h 53m
Length of Day
14h 49m
Waning Crescent, 18% of the Moon is Illuminated
Jul 3
Waning Crescent
Jul 8
New
Jul 15
First Quarter
Jul 22
Full
Jul 29
Last Quarter

Hourly Weather History & Observations

Time (EDT) Temp. Heat Index Dew Point Humidity Pressure Visibility Wind Dir Wind Speed Gust Speed Precip Events Conditions
12:10 AM 75.7 °F - 73.4 °F 92% 30.19 in 10.0 mi South 3.5 mph - N/A   Scattered Clouds
12:30 AM 75.6 °F - 73.2 °F 92% 30.19 in 10.0 mi South 3.5 mph - N/A   Clear
12:50 AM 75.4 °F - 73.0 °F 92% 30.19 in 10.0 mi South 3.5 mph - N/A   Scattered Clouds
1:10 AM 75.2 °F - 72.9 °F 92% 30.19 in 10.0 mi South 4.6 mph - N/A   Mostly Cloudy
1:30 AM 75.2 °F - 72.9 °F 92% 30.20 in 10.0 mi Calm Calm - N/A   Scattered Clouds
1:50 AM 75.2 °F - 72.7 °F 92% 30.19 in 10.0 mi Calm Calm - N/A   Scattered Clouds
2:10 AM 74.8 °F - 72.5 °F 92% 30.19 in 10.0 mi Calm Calm - N/A   Scattered Clouds
2:25 AM 74.7 °F - 72.5 °F 93% 30.19 in 10.0 mi South 3.5 mph - N/A   Scattered Clouds
2:50 AM 74.8 °F - 72.5 °F 92% 30.18 in 10.0 mi SSE 4.6 mph - N/A   Scattered Clouds
3:10 AM 75.0 °F - 72.5 °F 92% 30.18 in 10.0 mi Calm Calm - N/A   Mostly Cloudy
3:30 AM 74.8 °F - 72.5 °F 92% 30.18 in 10.0 mi South 3.5 mph - N/A   Overcast
3:50 AM 74.8 °F - 72.5 °F 92% 30.18 in 10.0 mi South 3.5 mph - N/A   Overcast
4:10 AM 74.7 °F - 72.7 °F 94% 30.19 in 10.0 mi SSE 3.5 mph - N/A   Overcast
4:30 AM 74.5 °F - 72.9 °F 95% 30.18 in 10.0 mi SSE 3.5 mph - N/A   Overcast
4:50 AM 74.3 °F - 72.9 °F 95% 30.19 in 10.0 mi South 3.5 mph - N/A   Mostly Cloudy
5:10 AM 74.3 °F - 73.2 °F 96% 30.19 in 10.0 mi Calm Calm - N/A   Mostly Cloudy
5:30 AM 74.3 °F - 73.4 °F 97% 30.20 in 10.0 mi Calm Calm - N/A   Mostly Cloudy
5:50 AM 73.8 °F - 73.4 °F 99% 30.20 in 10.0 mi Calm Calm - N/A   Overcast
6:10 AM 73.6 °F - 73.6 °F 100% 30.20 in 10.0 mi Calm Calm - N/A   Overcast
6:30 AM 73.4 °F - 73.4 °F 100% 30.20 in 10.0 mi Calm Calm - N/A   Overcast
6:50 AM 73.9 °F - 73.9 °F 100% 30.21 in 10.0 mi Calm Calm - N/A   Overcast
7:10 AM 74.3 °F - 74.1 °F 99% 30.21 in 10.0 mi Calm Calm - N/A   Overcast
7:30 AM 74.8 °F - 74.1 °F 98% 30.22 in 10.0 mi Calm Calm - N/A   Overcast
7:50 AM 75.2 °F - 74.3 °F 97% 30.22 in 10.0 mi South 4.6 mph - N/A   Overcast
8:10 AM 75.6 °F - 74.8 °F 98% 30.22 in 7.0 mi South 3.5 mph - N/A   Overcast
8:30 AM 75.6 °F - 75.0 °F 98% 30.23 in 3.0 mi Calm Calm - N/A   Overcast
8:50 AM 75.6 °F - 75.2 °F 99% 30.23 in 1.0 mi Calm Calm - N/A   Overcast
9:10 AM 75.2 °F - 75.2 °F 100% 30.23 in 1.5 mi Calm Calm - N/A   Overcast
9:30 AM 75.7 °F - 75.7 °F 100% 30.24 in 10.0 mi Calm Calm - N/A   Overcast
9:50 AM 76.6 °F - 76.5 °F 99% 30.23 in 10.0 mi Calm Calm - N/A   Overcast
10:10 AM 77.2 °F - 76.6 °F 98% 30.24 in 10.0 mi Calm Calm - N/A   Overcast
10:30 AM 77.5 °F - 77.0 °F 98% 30.24 in 2.5 mi Calm Calm - N/A   Overcast
10:50 AM 79.0 °F - 77.4 °F 95% 30.23 in 10.0 mi SSW 3.5 mph - N/A   Overcast
11:10 AM 80.1 °F 86.1 °F 77.5 °F 92% 30.23 in 10.0 mi Calm Calm - N/A   Overcast
11:30 AM 79.7 °F - 77.2 °F 92% 30.23 in 10.0 mi Calm Calm - N/A   Overcast
11:50 AM 82.4 °F 91.2 °F 77.5 °F 85% 30.23 in 10.0 mi SW 6.9 mph - N/A   Overcast
12:10 PM 82.4 °F 90.3 °F 76.5 °F 82% 30.22 in 10.0 mi SW 5.8 mph - N/A   Mostly Cloudy
12:30 PM 83.5 °F 91.9 °F 76.1 °F 78% 30.22 in 10.0 mi SW 5.8 mph - N/A   Scattered Clouds
12:50 PM 85.6 °F 95.5 °F 75.9 °F 73% 30.21 in 10.0 mi SW 8.1 mph - N/A   Scattered Clouds
1:05 PM 85.6 °F 94.2 °F 74.8 °F 70% 30.21 in 10.0 mi West 5.8 mph - N/A   Scattered Clouds
1:30 PM 85.3 °F 92.6 °F 73.8 °F 68% 30.21 in 10.0 mi SW 3.5 mph - N/A   Scattered Clouds
1:50 PM 85.3 °F 93.4 °F 74.3 °F 70% 30.20 in 10.0 mi Calm Calm - N/A   Scattered Clouds
2:05 PM 86.9 °F 96.4 °F 75.4 °F 68% 30.20 in 10.0 mi SSE 6.9 mph - N/A   Scattered Clouds
2:30 PM 87.4 °F 96.7 °F 74.7 °F 66% 30.20 in 10.0 mi SSW 8.1 mph - N/A   Scattered Clouds
2:50 PM 88.2 °F 98.5 °F 75.4 °F 66% 30.19 in 10.0 mi SSW 6.9 mph - N/A   Scattered Clouds
3:10 PM 88.3 °F 98.4 °F 75.0 °F 65% 30.19 in 10.0 mi SSW 5.8 mph - N/A   Scattered Clouds
3:30 PM 89.1 °F 100.2 °F 75.9 °F 65% 30.19 in 10.0 mi SSW 6.9 mph - N/A   Scattered Clouds
3:50 PM 87.3 °F 96.3 °F 74.8 °F 66% 30.19 in 10.0 mi South 5.8 mph - N/A   Scattered Clouds
4:10 PM 86.5 °F 95.5 °F 74.7 °F 68% 30.20 in 10.0 mi SSW 5.8 mph - N/A   Clear
4:30 PM 85.6 °F 94.2 °F 74.7 °F 70% 30.20 in 10.0 mi SSW 5.8 mph - N/A   Scattered Clouds
4:50 PM 85.3 °F 93.4 °F 74.7 °F 70% 30.19 in 10.0 mi SW 3.5 mph - N/A   Clear
5:10 PM 87.1 °F 95.9 °F 74.5 °F 66% 30.19 in 10.0 mi South 5.8 mph - N/A   Clear
5:30 PM 87.6 °F 96.7 °F 74.7 °F 65% 30.18 in 10.0 mi South 9.2 mph - N/A   Clear
5:50 PM 86.9 °F 95.9 °F 74.8 °F 67% 30.17 in 10.0 mi South 4.6 mph - N/A   Scattered Clouds
6:10 PM 87.6 °F 97.1 °F 75.2 °F 66% 30.18 in 10.0 mi South 5.8 mph - N/A   Clear
6:30 PM 86.2 °F 95.1 °F 74.8 °F 69% 30.20 in 10.0 mi South 4.6 mph - N/A   Scattered Clouds
6:50 PM 85.6 °F 94.6 °F 75.2 °F 71% 30.20 in 10.0 mi South 4.6 mph - N/A   Scattered Clouds
7:10 PM 85.1 °F 94.1 °F 75.4 °F 73% 30.20 in 10.0 mi South 5.8 mph - N/A   Clear
7:30 PM 84.6 °F 93.2 °F 75.4 °F 74% 30.20 in 10.0 mi South 4.6 mph - N/A   Clear
7:50 PM 83.8 °F 92.1 °F 75.7 °F 76% 30.20 in 10.0 mi SSW 4.6 mph - N/A   Clear
8:10 PM 83.5 °F 91.9 °F 75.9 °F 78% 30.20 in 10.0 mi South 3.5 mph - N/A   Clear
8:30 PM 82.8 °F 90.4 °F 75.7 °F 79% 30.20 in 10.0 mi SSE 4.6 mph - N/A   Clear
8:50 PM 82.4 °F 89.5 °F 75.2 °F 79% 30.20 in 10.0 mi South 4.6 mph - N/A   Clear
9:10 PM 81.5 °F 87.6 °F 74.7 °F 80% 30.21 in 10.0 mi South 8.1 mph - N/A   Clear
9:30 PM 80.8 °F 86.3 °F 74.8 °F 82% 30.22 in 10.0 mi South 3.5 mph - N/A   Clear
9:50 PM 80.1 °F 84.8 °F 74.7 °F 83% 30.22 in 10.0 mi South 4.6 mph - N/A   Clear
10:10 PM 79.7 °F - 74.7 °F 84% 30.23 in 10.0 mi SSW 4.6 mph - N/A   Clear
10:30 PM 79.3 °F - 74.7 °F 86% 30.24 in 10.0 mi SSW 3.5 mph - N/A   Clear
10:50 PM 79.0 °F - 74.8 °F 87% 30.23 in 10.0 mi Calm Calm - N/A   Clear
11:10 PM 78.8 °F - 75.2 °F 89% 30.23 in 10.0 mi Calm Calm - N/A   Clear
11:30 PM 78.4 °F - 75.2 °F 90% 30.24 in 10.0 mi Calm Calm - N/A   Clear
11:50 PM 77.0 °F - 75.2 °F 94% 30.24 in 10.0 mi Calm Calm - N/A   Clear